FIN26V EIDW-EFHK

Flight info

Callsign FIN26V
Flight time 1h 35m
Altitude 37000
Route ROTEV8E ROTEV DCT GOTNA DCT TRN DCT ADN DCT KLONN DCT MASEV DCT OTKIL Y368 LAKUT
Aircraft A319/M-SDE1E2E3FGIJ1M1RWXYZ/LB1

Departure

Time 2026-04-21 16:11
Airport Dublin Airport (EIDW)

Arrival

Time 2026-04-21 17:46
Airport Helsinki Vantaa Airport (EFHK)
Time Latitude Longitude Altitude Speed Heading
2026-04-21 15:47 53.42773 -6.24740 211 ft 0 kts
2026-04-21 16:00 53.42756 -6.24739 211 ft 4 kts 336°
2026-04-21 16:00 53.42737 -6.24712 213 ft 4 kts 293°
2026-04-21 16:00 53.42732 -6.24671 211 ft 2 kts 253°
2026-04-21 16:01 53.42733 -6.24667 211 ft 0 kts 252°
2026-04-21 16:04 53.42732 -6.24670 211 ft 1 kts 252°
2026-04-21 16:04 53.42723 -6.24715 211 ft 6 kts 248°
2026-04-21 16:04 53.42699 -6.24784 213 ft 8 kts 235°
2026-04-21 16:05 53.42663 -6.24867 211 ft 10 kts 237°
2026-04-21 16:05 53.42688 -6.24952 211 ft 9 kts 330°
2026-04-21 16:05 53.42745 -6.25010 214 ft 10 kts 328°
2026-04-21 16:05 53.42777 -6.25092 217 ft 8 kts 237°
2026-04-21 16:06 53.42732 -6.25168 211 ft 12 kts 224°
2026-04-21 16:06 53.42659 -6.25291 211 ft 18 kts 225°
2026-04-21 16:06 53.42561 -6.25459 210 ft 21 kts 225°
2026-04-21 16:06 53.42460 -6.25631 211 ft 20 kts 226°
2026-04-21 16:07 53.42362 -6.25799 211 ft 20 kts 225°
2026-04-21 16:07 53.42269 -6.25969 214 ft 20 kts 242°
2026-04-21 16:07 53.42260 -6.26193 211 ft 20 kts 276°
2026-04-21 16:07 53.42274 -6.26443 211 ft 22 kts 275°
2026-04-21 16:08 53.42299 -6.26884 211 ft 23 kts 275°
2026-04-21 16:08 53.42313 -6.27149 211 ft 23 kts 275°
2026-04-21 16:08 53.42329 -6.27429 211 ft 24 kts 276°
2026-04-21 16:09 53.42344 -6.27707 211 ft 24 kts 274°
2026-04-21 16:09 53.42358 -6.27980 211 ft 23 kts 275°
2026-04-21 16:09 53.42373 -6.28232 213 ft 19 kts 275°
2026-04-21 16:09 53.42320 -6.28328 211 ft 12 kts 179°
2026-04-21 16:10 53.42257 -6.28257 212 ft 10 kts 135°
2026-04-21 16:10 53.42204 -6.28182 215 ft 10 kts 140°
2026-04-21 16:10 53.42188 -6.28007 212 ft 35 kts 94°
2026-04-21 16:10 53.42143 -6.27174 210 ft 105 kts 95°
2026-04-21 16:11 53.42066 -6.25670 387 ft 140 kts 90°
2026-04-21 16:11 53.41984 -6.24036 1078 ft 140 kts 92°
2026-04-21 16:11 53.41900 -6.22434 1817 ft 137 kts 94°
2026-04-21 16:11 53.41822 -6.20817 2460 ft 144 kts 93°
2026-04-21 16:12 53.41733 -6.19048 2889 ft 163 kts 94°
2026-04-21 16:12 53.41649 -6.17009 3241 ft 188 kts 86°
2026-04-21 16:12 53.42203 -6.14882 3651 ft 219 kts 49°
2026-04-21 16:12 53.43652 -6.13654 4161 ft 251 kts 18°
2026-04-21 16:13 53.45426 -6.13222 5111 ft 262 kts
2026-04-21 16:13 53.47271 -6.13060 6156 ft 269 kts
2026-04-21 16:13 53.49157 -6.12969 7085 ft 273 kts
2026-04-21 16:13 53.51075 -6.12864 8002 ft 278 kts
2026-04-21 16:14 53.53021 -6.12719 8923 ft 282 kts
2026-04-21 16:14 53.54997 -6.12535 9842 ft 287 kts
2026-04-21 16:14 53.57009 -6.12317 10606 ft 296 kts
2026-04-21 16:14 53.59150 -6.12057 10927 ft 320 kts
2026-04-21 16:15 53.61425 -6.11768 11450 ft 333 kts
2026-04-21 16:15 53.63752 -6.11480 12210 ft 338 kts
2026-04-21 16:15 53.66111 -6.11190 13013 ft 341 kts
2026-04-21 16:15 53.68493 -6.10896 13830 ft 345 kts
2026-04-21 16:16 53.70900 -6.10600 14568 ft 348 kts
2026-04-21 16:16 53.73330 -6.10303 15279 ft 351 kts
2026-04-21 16:16 53.75780 -6.10005 15978 ft 354 kts
2026-04-21 16:16 53.78642 -6.09658 16788 ft 358 kts
2026-04-21 16:17 53.83656 -6.09044 18142 ft 365 kts
2026-04-21 16:17 53.92845 -6.07896 20325 ft 376 kts
2026-04-21 16:17 54.03536 -6.05890 22743 ft 392 kts 15°
2026-04-21 16:17 54.13581 -5.97814 24861 ft 405 kts 21°
2026-04-21 16:18 54.23918 -5.89416 26532 ft 417 kts 21°
2026-04-21 16:18 54.34514 -5.80642 28141 ft 428 kts 20°
2026-04-21 16:18 54.45388 -5.71627 29673 ft 440 kts 19°
2026-04-21 16:18 54.56555 -5.62320 30993 ft 450 kts 20°
2026-04-21 16:19 54.67431 -5.50996 32152 ft 463 kts 28°
2026-04-21 16:19 54.72541 -5.45279 32967 ft 459 kts 29°
2026-04-21 16:19 54.75186 -5.42320 33381 ft 458 kts 29°
2026-04-21 16:19 54.77859 -5.39330 33779 ft 457 kts 30°
2026-04-21 16:20 54.80528 -5.36346 34176 ft 456 kts 30°
2026-04-21 16:20 54.87636 -5.28356 35082 ft 454 kts 31°
2026-04-21 16:20 54.98180 -5.16417 36305 ft 450 kts 31°
2026-04-21 16:20 55.08662 -5.04493 37361 ft 448 kts 32°
2026-04-21 16:21 55.19044 -4.92616 37532 ft 441 kts 32°
2026-04-21 16:21 55.25710 -4.84765 37427 ft 438 kts 33°
2026-04-21 16:21 55.27380 -4.82809 37532 ft 439 kts 32°
2026-04-21 16:22 55.32947 -4.76467 37475 ft 442 kts 32°
2026-04-21 16:22 55.43185 -4.64404 37490 ft 443 kts 33°
2026-04-21 16:23 55.53384 -4.52200 37495 ft 443 kts 33°
2026-04-21 16:23 55.63525 -4.40019 37503 ft 443 kts 33°
2026-04-21 16:24 55.73692 -4.27711 37526 ft 443 kts 34°
2026-04-21 16:24 55.83987 -4.15174 37526 ft 442 kts 34°
2026-04-21 16:25 55.94166 -4.02741 37530 ft 442 kts 34°
2026-04-21 16:25 56.04278 -3.90262 37548 ft 441 kts 34°
2026-04-21 16:26 56.11484 -3.81334 37549 ft 441 kts 34°
2026-04-21 16:26 56.16531 -3.75049 37559 ft 440 kts 35°
2026-04-21 16:27 56.21555 -3.68780 37559 ft 440 kts 35°
2026-04-21 16:27 56.26575 -3.62489 37475 ft 439 kts 35°
2026-04-21 16:28 56.31591 -3.56184 37554 ft 440 kts 35°
2026-04-21 16:28 56.36607 -3.49854 37571 ft 440 kts 35°
2026-04-21 16:29 56.40763 -3.44589 37576 ft 439 kts 35°
2026-04-21 16:29 56.46604 -3.37181 37579 ft 439 kts 35°
2026-04-21 16:30 56.51607 -3.30826 37582 ft 438 kts 35°
2026-04-21 16:30 56.56588 -3.24459 37581 ft 438 kts 35°
2026-04-21 16:31 56.61554 -3.18081 37578 ft 437 kts 35°
2026-04-21 16:31 56.66519 -3.11708 37578 ft 437 kts 36°
2026-04-21 16:32 56.71475 -3.05314 37578 ft 437 kts 36°
2026-04-21 16:32 56.76428 -2.98884 37578 ft 437 kts 36°
2026-04-21 16:33 56.82986 -2.90372 37579 ft 436 kts 36°
2026-04-21 16:33 56.92870 -2.77457 37586 ft 436 kts 36°
2026-04-21 16:34 57.02721 -2.64495 37596 ft 436 kts 36°
2026-04-21 16:34 57.12510 -2.51536 37610 ft 435 kts 37°
2026-04-21 16:35 57.22321 -2.38441 37617 ft 435 kts 37°
2026-04-21 16:35 57.31425 -2.23861 37603 ft 433 kts 57°
2026-04-21 16:36 57.36520 -2.03642 37604 ft 433 kts 66°
2026-04-21 16:36 57.41358 -1.83166 37602 ft 434 kts 66°
2026-04-21 16:37 57.45333 -1.66086 37600 ft 433 kts 66°
2026-04-21 16:37 57.50874 -1.42103 37586 ft 433 kts 67°
2026-04-21 16:38 57.54828 -1.24798 37592 ft 434 kts 67°
2026-04-21 16:38 57.59498 -1.04226 37590 ft 434 kts 67°
2026-04-21 16:39 57.64157 -0.83458 37588 ft 434 kts 67°
2026-04-21 16:39 57.68786 -0.62620 37594 ft 434 kts 68°
2026-04-21 16:40 57.73380 -0.41734 37589 ft 433 kts 68°
2026-04-21 16:40 57.77922 -0.20834 37582 ft 433 kts 68°
2026-04-21 16:41 57.82437 0.00045 37736 ft 432 kts 68°
2026-04-21 16:41 57.84682 0.10543 37530 ft 429 kts 69°
2026-04-21 16:41 57.86873 0.20921 37530 ft 424 kts 69°
2026-04-21 16:42 57.91245 0.41601 37541 ft 428 kts 69°
2026-04-21 16:42 57.95607 0.62510 37559 ft 430 kts 69°
2026-04-21 16:43 57.99931 0.83423 37571 ft 431 kts 69°
2026-04-21 16:43 58.04280 1.04532 37580 ft 431 kts 69°
2026-04-21 16:44 58.08568 1.25719 37572 ft 431 kts 70°
2026-04-21 16:44 58.12815 1.46932 37568 ft 431 kts 70°
2026-04-21 16:45 58.17009 1.68061 37568 ft 431 kts 70°
2026-04-21 16:45 58.21194 1.89375 37556 ft 431 kts 70°
2026-04-21 16:46 58.25362 2.10798 37562 ft 432 kts 70°
2026-04-21 16:46 58.29458 2.32153 37547 ft 432 kts 70°
2026-04-21 16:47 58.33544 2.53684 37543 ft 432 kts 71°
2026-04-21 16:47 58.37593 2.75276 37540 ft 433 kts 71°
2026-04-21 16:48 58.42034 2.96598 37545 ft 433 kts 66°
2026-04-21 16:48 58.47043 3.17557 37545 ft 433 kts 67°
2026-04-21 16:49 58.51854 3.38695 37532 ft 433 kts 67°
2026-04-21 16:49 58.56604 3.59735 37538 ft 433 kts 67°
2026-04-21 16:50 58.61359 3.80987 37521 ft 433 kts 68°
2026-04-21 16:50 58.66076 4.02315 37530 ft 433 kts 68°
2026-04-21 16:51 58.70758 4.23695 37515 ft 433 kts 68°
2026-04-21 16:51 58.75393 4.45108 37508 ft 433 kts 68°
2026-04-21 16:52 58.80014 4.66587 37509 ft 433 kts 68°
2026-04-21 16:52 58.84550 4.87956 37507 ft 433 kts 69°
2026-04-21 16:53 58.89066 5.09506 37494 ft 432 kts 69°
2026-04-21 16:53 58.93560 5.31070 37500 ft 432 kts 69°
2026-04-21 16:54 58.98039 5.52874 37508 ft 432 kts 69°
2026-04-21 16:54 59.02451 5.74564 37504 ft 432 kts 69°
2026-04-21 16:55 59.06829 5.96304 37491 ft 432 kts 69°
2026-04-21 16:55 59.11176 6.18102 37482 ft 431 kts 69°
2026-04-21 16:56 59.15470 6.39936 37484 ft 430 kts 70°
2026-04-21 16:56 59.19742 6.61875 37499 ft 430 kts 70°
2026-04-21 16:57 59.23938 6.83629 37506 ft 430 kts 70°
2026-04-21 16:57 59.26796 6.98657 37530 ft 429 kts 70°
2026-04-21 16:58 59.28869 7.09604 37514 ft 428 kts 70°
2026-04-21 16:58 59.30936 7.20567 37500 ft 428 kts 70°
2026-04-21 16:59 59.32994 7.31531 37495 ft 428 kts 70°
2026-04-21 16:59 59.35034 7.42472 37487 ft 428 kts 70°
2026-04-21 17:00 59.37074 7.53469 37477 ft 428 kts 70°
2026-04-21 17:00 59.38768 7.62656 37474 ft 428 kts 71°
2026-04-21 17:01 59.41118 7.75515 37467 ft 427 kts 71°
2026-04-21 17:01 59.43126 7.86524 37460 ft 427 kts 71°
2026-04-21 17:02 59.45118 7.97522 37451 ft 427 kts 71°
2026-04-21 17:02 59.47097 8.08527 37448 ft 427 kts 71°
2026-04-21 17:03 59.49085 8.19626 37434 ft 426 kts 71°
2026-04-21 17:03 59.51038 8.30597 37434 ft 426 kts 71°
2026-04-21 17:04 59.52989 8.41642 37430 ft 427 kts 71°
2026-04-21 17:04 59.54934 8.52711 37424 ft 427 kts 71°
2026-04-21 17:05 59.56873 8.63795 37423 ft 427 kts 71°
2026-04-21 17:05 59.58785 8.74807 37420 ft 427 kts 71°
2026-04-21 17:06 59.60697 8.85892 37417 ft 427 kts 71°
2026-04-21 17:06 59.64095 9.05741 37413 ft 426 kts 71°
2026-04-21 17:07 59.67233 9.24286 37412 ft 426 kts 72°
2026-04-21 17:07 59.71607 9.50372 37410 ft 426 kts 72°
2026-04-21 17:08 59.74670 9.68937 37402 ft 426 kts 72°
2026-04-21 17:08 59.78309 9.91180 37400 ft 426 kts 72°
2026-04-21 17:09 59.83720 10.24864 37393 ft 425 kts 72°
2026-04-21 17:09 59.89042 10.58608 37392 ft 425 kts 73°
2026-04-21 17:10 59.96025 11.03904 37388 ft 424 kts 73°
2026-04-21 17:10 60.02778 11.48814 37385 ft 424 kts 73°
2026-04-21 17:11 60.09391 11.94128 37372 ft 424 kts 73°
2026-04-21 17:11 60.15859 12.39648 37360 ft 424 kts 74°
2026-04-21 17:12 60.19947 12.86154 37338 ft 423 kts 82°
2026-04-21 17:12 60.22909 13.33197 37349 ft 423 kts 82°
2026-04-21 17:13 60.24330 13.56675 37239 ft 426 kts 81°
2026-04-21 17:13 60.25542 13.77292 37226 ft 430 kts 81°
2026-04-21 17:13 60.26237 13.89372 37328 ft 434 kts 81°
2026-04-21 17:14 60.26916 14.01442 37333 ft 433 kts 81°
2026-04-21 17:14 60.28278 14.26224 37331 ft 432 kts 81°
2026-04-21 17:15 60.30796 14.74472 37315 ft 431 kts 81°
2026-04-21 17:15 60.33128 15.22692 37287 ft 431 kts 82°
2026-04-21 17:16 60.35281 15.70666 37298 ft 431 kts 82°
2026-04-21 17:16 60.37270 16.18873 37287 ft 430 kts 83°
2026-04-21 17:17 60.39078 16.67162 37278 ft 430 kts 83°
2026-04-21 17:17 60.40702 17.15440 37273 ft 430 kts 83°
2026-04-21 17:18 60.42170 17.63820 37279 ft 430 kts 84°
2026-04-21 17:18 60.43453 18.12211 37276 ft 430 kts 84°
2026-04-21 17:19 60.44550 18.60354 37282 ft 429 kts 84°
2026-04-21 17:19 60.45480 19.08772 37283 ft 428 kts 85°
2026-04-21 17:20 60.46227 19.57090 37262 ft 428 kts 85°
2026-04-21 17:20 60.46805 20.05052 37256 ft 427 kts 86°
2026-04-21 17:21 60.47222 20.53293 37247 ft 427 kts 86°
2026-04-21 17:21 60.47431 20.98108 37233 ft 427 kts 86°
2026-04-21 17:22 60.47464 21.10131 37228 ft 427 kts 86°
2026-04-21 17:22 60.47495 21.22171 37226 ft 426 kts 86°
2026-04-21 17:23 60.47505 21.28182 36972 ft 425 kts 86°
2026-04-21 17:23 60.47511 21.34160 36336 ft 424 kts 87°
2026-04-21 17:23 60.47510 21.40151 35694 ft 424 kts 87°
2026-04-21 17:23 60.47486 21.46131 35065 ft 424 kts 88°
2026-04-21 17:24 60.47445 21.52093 34500 ft 422 kts 88°
2026-04-21 17:24 60.47395 21.58010 34023 ft 417 kts 88°
2026-04-21 17:24 60.47344 21.63856 33475 ft 412 kts 88°
2026-04-21 17:24 60.47293 21.69657 32932 ft 409 kts 88°
2026-04-21 17:25 60.47242 21.75394 32394 ft 405 kts 88°
2026-04-21 17:25 60.47193 21.81086 31890 ft 401 kts 88°
2026-04-21 17:25 60.47143 21.86641 31395 ft 398 kts 88°
2026-04-21 17:25 60.47093 21.92226 30898 ft 394 kts 88°
2026-04-21 17:26 60.47040 21.97762 30416 ft 391 kts 88°
2026-04-21 17:26 60.46984 22.03255 29879 ft 388 kts 88°
2026-04-21 17:26 60.46925 22.08700 29336 ft 385 kts 88°
2026-04-21 17:26 60.46866 22.14099 28811 ft 381 kts 88°
2026-04-21 17:27 60.46806 22.19441 28303 ft 378 kts 88°
2026-04-21 17:27 60.46744 22.24766 27808 ft 375 kts 88°
2026-04-21 17:27 60.46679 22.30037 27339 ft 372 kts 88°
2026-04-21 17:27 60.46610 22.35268 26886 ft 370 kts 88°
2026-04-21 17:28 60.46539 22.40473 26439 ft 367 kts 88°
2026-04-21 17:28 60.46466 22.45572 26004 ft 365 kts 88°
2026-04-21 17:28 60.46395 22.50699 25558 ft 362 kts 88°
2026-04-21 17:28 60.46327 22.55764 25115 ft 360 kts 88°
2026-04-21 17:29 60.46257 22.60846 24670 ft 358 kts 88°
2026-04-21 17:29 60.46185 22.65871 24228 ft 355 kts 89°
2026-04-21 17:29 60.46112 22.70862 23781 ft 353 kts 89°
2026-04-21 17:29 60.46035 22.75825 23262 ft 351 kts 89°
2026-04-21 17:30 60.45957 22.80755 22753 ft 349 kts 89°
2026-04-21 17:30 60.45877 22.85663 22254 ft 347 kts 89°
2026-04-21 17:30 60.45795 22.90550 21768 ft 345 kts 89°
2026-04-21 17:30 60.45712 22.95402 21295 ft 343 kts 89°
2026-04-21 17:31 60.45628 23.00235 20829 ft 342 kts 89°
2026-04-21 17:31 60.45543 23.05037 20373 ft 340 kts 89°
2026-04-21 17:31 60.45454 23.09805 19936 ft 338 kts 89°
2026-04-21 17:31 60.45365 23.14555 19493 ft 337 kts 89°
2026-04-21 17:32 60.45305 23.17697 19208 ft 336 kts 89°
2026-04-21 17:32 60.45185 23.24019 18645 ft 334 kts 89°
2026-04-21 17:32 60.45094 23.28709 18214 ft 333 kts 89°
2026-04-21 17:32 60.45001 23.33330 17763 ft 331 kts 89°
2026-04-21 17:33 60.44909 23.37981 17329 ft 329 kts 89°
2026-04-21 17:33 60.44818 23.42603 16905 ft 328 kts 89°
2026-04-21 17:33 60.44725 23.47201 16493 ft 326 kts 89°
2026-04-21 17:33 60.44631 23.51776 16098 ft 324 kts 89°
2026-04-21 17:34 60.44533 23.56330 15698 ft 323 kts 88°
2026-04-21 17:34 60.44431 23.60861 15310 ft 322 kts 88°
2026-04-21 17:34 60.44329 23.65378 14929 ft 320 kts 88°
2026-04-21 17:34 60.44226 23.69878 14549 ft 319 kts 88°
2026-04-21 17:35 60.44122 23.74355 14175 ft 317 kts 88°
2026-04-21 17:35 60.44021 23.78799 13802 ft 316 kts 88°
2026-04-21 17:35 60.43900 23.83243 13390 ft 316 kts 92°
2026-04-21 17:35 60.43400 23.87589 12994 ft 319 kts 106°
2026-04-21 17:36 60.42394 23.91618 12608 ft 323 kts 121°
2026-04-21 17:36 60.41080 23.95299 12221 ft 321 kts 123°
2026-04-21 17:36 60.39771 23.98944 11843 ft 319 kts 123°
2026-04-21 17:36 60.38474 24.02567 11469 ft 316 kts 122°
2026-04-21 17:37 60.37188 24.06160 11099 ft 314 kts 122°
2026-04-21 17:37 60.35929 24.09680 10720 ft 312 kts 123°
2026-04-21 17:37 60.35072 24.12073 10480 ft 310 kts 123°
2026-04-21 17:37 60.33424 24.16655 10238 ft 298 kts 123°
2026-04-21 17:38 60.32215 24.20013 9879 ft 294 kts 123°
2026-04-21 17:38 60.31020 24.23331 9410 ft 291 kts 123°
2026-04-21 17:38 60.29832 24.26624 8886 ft 288 kts 123°
2026-04-21 17:38 60.28655 24.29879 8360 ft 286 kts 123°
2026-04-21 17:39 60.27485 24.33101 7846 ft 283 kts 123°
2026-04-21 17:39 60.26326 24.36287 7327 ft 280 kts 123°
2026-04-21 17:39 60.25199 24.39373 6834 ft 277 kts 123°
2026-04-21 17:39 60.24072 24.42459 6479 ft 268 kts 123°
2026-04-21 17:40 60.22995 24.45412 6060 ft 262 kts 123°
2026-04-21 17:40 60.21931 24.48324 5639 ft 254 kts 123°
2026-04-21 17:40 60.20888 24.51177 5239 ft 246 kts 123°
2026-04-21 17:40 60.19895 24.53892 4944 ft 242 kts 123°
2026-04-21 17:41 60.18897 24.56621 4575 ft 243 kts 123°
2026-04-21 17:41 60.18064 24.59506 4289 ft 233 kts 103°
2026-04-21 17:41 60.17900 24.62628 4116 ft 215 kts 78°
2026-04-21 17:41 60.18326 24.65350 3914 ft 203 kts 57°
2026-04-21 17:42 60.19181 24.67548 3662 ft 198 kts 43°
2026-04-21 17:42 60.20117 24.69575 3408 ft 198 kts 43°
2026-04-21 17:42 60.21050 24.71601 3138 ft 196 kts 43°
2026-04-21 17:42 60.21968 24.73599 2869 ft 193 kts 44°
2026-04-21 17:43 60.22872 24.75569 2605 ft 189 kts 44°
2026-04-21 17:43 60.23752 24.77489 2379 ft 184 kts 44°
2026-04-21 17:43 60.24599 24.79340 2109 ft 174 kts 44°
2026-04-21 17:43 60.25392 24.81072 1882 ft 163 kts 44°
2026-04-21 17:44 60.26148 24.82724 1662 ft 158 kts 44°
2026-04-21 17:44 60.26857 24.84260 1499 ft 140 kts 43°
2026-04-21 17:44 60.27473 24.85615 1279 ft 131 kts 44°
2026-04-21 17:44 60.28082 24.87002 1034 ft 128 kts 45°
2026-04-21 17:45 60.28696 24.88299 835 ft 127 kts 45°
2026-04-21 17:45 60.29294 24.89618 706 ft 128 kts 45°
2026-04-21 17:45 60.29895 24.90934 542 ft 127 kts 46°
2026-04-21 17:45 60.30498 24.92242 383 ft 127 kts 47°
2026-04-21 17:46 60.31092 24.93551 216 ft 126 kts 45°
2026-04-21 17:46 60.31649 24.94782 168 ft 103 kts 47°
2026-04-21 17:46 60.32000 24.95553 173 ft 42 kts 47°
2026-04-21 17:46 60.32050 24.95789 174 ft 10 kts 111°
2026-04-21 17:47 60.31997 24.95902 173 ft 12 kts 137°
2026-04-21 17:47 60.31945 24.95966 171 ft 14 kts 177°
2026-04-21 17:47 60.31870 24.95829 169 ft 16 kts 228°
2026-04-21 17:47 60.31795 24.95664 170 ft 16 kts 227°
2026-04-21 17:48 60.31720 24.95499 171 ft 16 kts 227°
2026-04-21 17:48 60.31643 24.95328 170 ft 17 kts 228°
2026-04-21 17:48 60.31561 24.95147 170 ft 18 kts 227°
2026-04-21 17:48 60.31491 24.94997 168 ft 10 kts 227°
2026-04-21 17:49 60.31438 24.94989 168 ft 10 kts 135°
2026-04-21 17:49 60.31383 24.95108 167 ft 10 kts 155°
2026-04-21 17:49 60.31334 24.95049 167 ft 7 kts 202°
2026-04-21 17:49 60.31312 24.95082 167 ft 4 kts 134°
2026-04-21 17:50 60.31306 24.95095 167 ft 4 kts 135°